Location: Trébons-de-Luchon
(42.8036°N, 0.5656°E)
Time: 20:43:05
(UTC+02:00)

ISS - Visible Passes

Search period start: 01 August 2021 00:00
Search period end: 11 August 2021 00:00
Orbit: 419 x 421 km, 51.6° (Epoch: 01 August)

Date Brightness Start Highest point End Pass type
(mag) Time Alt. Az. Time Alt. Az. Time Alt. Az.
01 Aug -3.0 22:26:55 10° WNW 22:30:08 43° SW 22:32:14 19° SSE visible
03 Aug -1.3 22:29:57 10° W 22:32:04 16° SW 22:34:10 10° S visible
04 Aug -2.0 21:42:06 10° WNW 21:44:57 25° SW 21:47:48 10° SSE visible
